XE2KK-10 Weather Reports


Display with metric or nautical units.
time (UTC)temp
F
wind
direction
speed
MPH
gust
MPH
rain 1hr
in
rain 24hr
in
rain mn
in
humidity
%
barometer
mb
20260507103913 77 303 1.0 2.0 0.00 0.00 0.00 79 1013.1
20260507103412 77 282 3.0 4.0 0.00 0.00 0.00 79 1013.3
20260507102912 77 343 2.0 3.0 0.00 0.00 0.00 79 1013.1
20260507102412 77 301 1.0 2.0 0.00 0.00 0.00 79 1013.1
20260507101912 77 278 0.0 0.0 0.00 0.00 0.00 78 1013.2
20260507101412 77 262 0.0 0.0 0.00 0.00 0.00 78 1013.5
20260507100913 77 276 0.0 0.0 0.00 0.00 0.00 78 1013.1
20260507100412 78 284 1.0 2.0 0.00 0.00 0.00 78 1013.2
20260507095912 78 263 0.0 0.0 0.00 0.00 0.00 78 1012.9
20260507095412 78 262 1.0 2.0 0.00 0.00 0.00 77 1013.0
20260507094912 78 275 2.0 2.0 0.00 0.00 0.00 77 1012.9
20260507094412 78 281 2.0 3.0 0.00 0.00 0.00 77 1012.9
20260507093913 78 272 1.0 2.0 0.00 0.00 0.00 77 1012.8
20260507093412 78 262 1.0 2.0 0.00 0.00 0.00 77 1012.8
20260507092912 78 254 2.0 3.0 0.00 0.00 0.00 77 1012.9
20260507092412 78 259 2.0 3.0 0.00 0.00 0.00 77 1012.9
20260507091912 78 251 3.0 4.0 0.00 0.00 0.00 77 1013.0
20260507091412 78 240 1.0 2.0 0.00 0.00 0.00 77 1012.9
20260507090913 78 279 2.0 3.0 0.00 0.00 0.00 76 1012.9
20260507090412 78 245 2.0 3.0 0.00 0.00 0.00 76 1013.0
20260507085912 78 265 2.0 3.0 0.00 0.00 0.00 76 1012.8
20260507085412 78 264 2.0 3.0 0.00 0.00 0.00 76 1012.7
20260507084912 78 284 1.0 2.0 0.00 0.00 0.00 76 1012.7
20260507084412 78 296 2.0 2.0 0.00 0.00 0.00 76 1012.9
20260507083913 79 295 3.0 3.0 0.00 0.00 0.00 76 1012.9
20260507083412 78 279 1.0 2.0 0.00 0.00 0.00 76 1013.0
20260507082912 79 49 2.0 3.0 0.00 0.00 0.00 75 1013.0
20260507082412 78 18 2.0 2.0 0.00 0.00 0.00 75 1012.9
20260507081912 78 272 0.0 0.0 0.00 0.00 0.00 75 1013.0
20260507081412 78 300 1.0 2.0 0.00 0.00 0.00 75 1013.0
20260507080913 79 319 1.0 2.0 0.00 0.00 0.00 75 1012.9
20260507080412 79 306 0.0 0.0 0.00 0.00 0.00 75 1012.9
20260507075918 79 307 1.0 2.0 0.00 0.00 0.00 75 1013.1
20260507075419 79 289 1.0 2.0 0.00 0.00 0.00 75 1013.1
20260507074912 79 266 1.0 2.0 0.00 0.00 0.00 75 1013.3
20260507074412 79 259 0.0 0.0 0.00 0.00 0.00 74 1013.2
20260507073912 79 131 0.0 0.0 0.00 0.00 0.00 74 1013.0
20260507073413 79 282 1.0 2.0 0.00 0.00 0.00 74 1013.0
20260507072913 79 250 2.0 2.0 0.00 0.00 0.00 73 1013.0
20260507072413 80 269 3.0 4.0 0.00 0.00 0.00 73 1013.1
20260507071912 80 270 2.0 3.0 0.00 0.00 0.00 72 1012.9
20260507071412 80 249 2.0 4.0 0.00 0.00 0.00 72 1012.9
20260507070912 80 283 5.0 6.0 0.00 0.00 0.00 72 1012.9
20260507070413 80 20 4.0 5.0 0.00 0.00 0.00 71 1012.8
20260507065913 80 1 7.0 9.0 0.00 0.00 0.00 71 1012.9
20260507065413 80 347 4.0 6.0 0.00 0.00 0.00 71 1012.8
20260507064912 80 6 4.0 6.0 0.00 0.00 0.00 70 1012.8
20260507064412 80 269 4.0 6.0 0.00 0.00 0.00 70 1012.8
20260507063913 81 328 6.0 9.0 0.00 0.00 0.00 70 1012.9
20260507063413 81 349 6.0 7.0 0.00 0.00 0.00 69 1012.9
20260507062913 81 306 5.0 7.0 0.00 0.00 0.00 69 1012.9
20260507062413 81 331 5.0 6.0 0.00 0.00 0.00 68 1012.8
20260507061912 81 292 4.0 5.0 0.00 0.00 0.00 68 1013.0
20260507061412 81 348 6.0 9.0 0.00 0.00 0.00 68 1012.8
20260507060913 81 321 3.0 7.0 0.00 0.00 0.00 67 1012.7
20260507060412 81 323 5.0 9.0 0.00 0.00 0.00 67 1012.8
20260507055912 82 279 3.0 4.0 0.00 0.00 0.00 67 1012.6
20260507055412 82 248 5.0 9.0 0.00 0.00 0.00 66 1012.9
20260507054912 82 330 3.0 6.0 0.00 0.00 0.00 66 1012.7
20260507054412 82 276 5.0 6.0 0.00 0.00 0.00 65 1012.5
20260507053913 82 344 3.0 5.0 0.00 0.00 0.00 64 1012.7
20260507053412 82 276 6.0 7.0 0.00 0.00 0.00 64 1012.6
20260507052912 83 298 4.0 5.0 0.00 0.00 0.00 63 1012.7
20260507052412 83 351 5.0 6.0 0.00 0.00 0.00 64 1012.7
20260507051912 83 316 8.0 10.0 0.00 0.00 0.00 63 1012.7
20260507051412 83 315 11.0 13.0 0.00 0.00 0.00 63 1012.6
20260507050913 83 284 7.0 10.0 0.00 0.00 0.00 63 1012.3
20260507050412 83 306 8.0 10.0 0.00 0.00 0.00 63 1012.6
20260507045912 83 320 2.0 4.0 0.00 0.00 0.00 62 1012.3
20260507045412 83 329 3.0 5.0 0.00 0.00 0.00 62 1012.2
20260507044913 83 353 6.0 9.0 0.00 0.00 0.00 62 1012.1
20260507044413 83 206 4.0 7.0 0.00 0.00 0.00 62 1012.0
20260507043913 83 16 6.0 10.0 0.00 0.00 0.00 61 1012.2
20260507043412 84 337 5.0 6.0 0.00 0.00 0.00 61 1012.2
20260507042912 83 327 3.0 4.0 0.00 0.00 0.00 61 1012.0
20260507042412 84 345 6.0 7.0 0.00 0.00 0.00 61 1012.1
20260507041913 84 328 4.0 6.0 0.00 0.00 0.00 61 1012.0
20260507041413 84 332 5.0 7.0 0.00 0.00 0.00 61 1012.0
20260507040913 84 332 6.0 7.0 0.00 0.00 0.00 61 1011.8
20260507040412 84 295 5.0 6.0 0.00 0.00 0.00 61 1011.9
20260507035912 84 44 8.0 10.0 0.00 0.00 0.00 61 1011.8
20260507035412 84 24 6.0 10.0 0.00 0.00 0.00 61 1011.8
20260507034913 84 330 10.0 12.0 0.00 0.00 0.00 60 1011.8
20260507034413 84 323 6.0 10.0 0.00 0.00 0.00 60 1011.8
20260507033912 84 274 4.0 5.0 0.00 0.00 0.00 60 1011.8
20260507033412 84 333 7.0 13.0 0.00 0.00 0.00 60 1011.5
20260507032912 85 1 8.0 10.0 0.00 0.00 0.00 60 1011.5
20260507032413 84 323 6.0 6.0 0.00 0.00 0.00 60 1011.5
20260507031912 84 293 8.0 10.0 0.00 0.00 0.00 60 1011.7
20260507031412 84 281 3.0 4.0 0.00 0.00 0.00 60 1011.4
20260507030912 85 9 7.0 10.0 0.00 0.00 0.00 60 1011.2
20260507030412 85 321 8.0 11.0 0.00 0.00 0.00 60 1011.3
20260507025912 85 202 4.0 7.0 0.00 0.00 0.00 60 1010.9
20260507025413 85 333 4.0 7.0 0.00 0.00 0.00 60 1010.8
20260507024912 85 249 5.0 7.0 0.00 0.00 0.00 60 1010.9
20260507024412 85 26 4.0 6.0 0.00 0.00 0.00 60 1010.6
20260507023912 85 327 10.0 14.0 0.00 0.00 0.00 59 1010.9
20260507023412 85 291 6.0 7.0 0.00 0.00 0.00 59 1010.7
20260507022912 85 345 11.0 13.0 0.00 0.00 0.00 59 1010.6
20260507022413 86 2 6.0 10.0 0.00 0.00 0.00 59 1010.7
20260507021912 86 269 5.0 6.0 0.00 0.00 0.00 58 1010.3
20260507021412 86 252 3.0 6.0 0.00 0.00 0.00 58 1010.3
20260507020912 86 334 4.0 5.0 0.00 0.00 0.00 58 1010.0
20260507020412 86 306 6.0 7.0 0.00 0.00 0.00 57 1010.2
20260507015912 86 331 6.0 11.0 0.00 0.00 0.00 57 1009.9
20260507015413 86 244 9.0 11.0 0.00 0.00 0.00 57 1009.6
20260507014912 86 43 12.0 13.0 0.00 0.00 0.00 57 1009.6
20260507014412 86 356 7.0 9.0 0.00 0.00 0.00 56 1009.8
20260507013912 87 18 6.0 11.0 0.00 0.00 0.00 56 1009.7
20260507013412 87 3 8.0 13.0 0.00 0.00 0.00 55 1009.5
20260507012912 87 348 8.0 10.0 0.00 0.00 0.00 55 1009.3
20260507012413 87 23 7.0 11.0 0.00 0.00 0.00 54 1009.3
20260507011912 88 25 10.0 16.0 0.00 0.00 0.00 54 1009.1
20260507011412 88 319 12.0 16.0 0.00 0.00 0.00 54 1009.1
20260507010912 88 347 8.0 13.0 0.00 0.00 0.00 53 1008.9
20260507010412 88 78 7.0 10.0 0.00 0.00 0.00 53 1008.8
20260507005912 88 49 6.0 11.0 0.00 0.00 0.00 53 1008.6
20260507005413 88 321 10.0 13.0 0.00 0.00 0.00 53 1008.4
20260507004912 89 342 18.0 23.0 0.00 0.00 0.00 52 1008.5
20260507004412 89 324 6.0 7.0 0.00 0.00 0.00 52 1008.2
20260507003912 89 95 14.0 21.0 0.00 0.00 0.00 51 1008.1
20260507003412 90 358 12.0 14.0 0.00 0.00 0.00 50 1008.3
20260507002912 90 353 14.0 19.0 0.00 0.00 0.00 50 1008.1
20260507002413 90 300 7.0 11.0 0.00 0.00 0.00 49 1007.9
20260507001912 90 19 8.0 11.0 0.00 0.00 0.00 48 1007.7
20260507001412 91 16 12.0 14.0 0.00 0.00 0.00 48 1007.4
20260507000912 91 297 7.0 11.0 0.00 0.00 0.00 47 1007.2
20260507000412 92 14 12.0 16.0 0.00 0.00 0.00 47 1007.2
20260506235912 92 291 11.0 15.0 0.00 0.00 0.00 46 1007.1
20260506235413 93 2 7.0 10.0 0.00 0.00 0.00 46 1007.1
20260506234912 93 319 8.0 10.0 0.00 0.00 0.00 45 1007.0
20260506234412 94 331 7.0 10.0 0.00 0.00 0.00 43 1006.7
20260506233912 95 349 9.0 13.0 0.00 0.00 0.00 41 1006.6
20260506233412 96 63 6.0 10.0 0.00 0.00 0.00 38 1006.7
20260506232912 97 287 8.0 12.0 0.00 0.00 0.00 36 1006.5
20260506232413 98 31 10.0 13.0 0.00 0.00 0.00 32 1006.3
20260506231912 100 39 8.0 10.0 0.00 0.00 0.00 28 1006.4
20260506231412 100 320 4.0 6.0 0.00 0.00 0.00 25 1006.7
20260506230912 99 328 6.0 11.0 0.00 0.00 0.00 25 1006.3
20260506230412 99 31 4.0 6.0 0.00 0.00 0.00 25 1006.4
20260506225912 99 247 5.0 6.0 0.00 0.00 0.00 26 1006.3
20260506225413 100 285 3.0 4.0 0.00 0.00 0.00 24 1006.4
20260506224912 99 8 4.0 6.0 0.00 0.00 0.00 24 1006.2
20260506224412 99 32 3.0 5.0 0.00 0.00 0.00 23 1006.2
20260506223912 99 61 4.0 6.0 0.00 0.00 0.00 22 1006.4
20260506223412 99 43 6.0 10.0 0.00 0.00 0.00 21 1006.0
20260506222912 99 265 5.0 6.0 0.00 0.00 0.00 22 1006.1
20260506222413 99 248 3.0 6.0 0.00 0.00 0.00 22 1006.0
20260506221912 99 34 4.0 6.0 0.00 0.00 0.00 22 1006.1
20260506221412 99 14 4.0 6.0 0.00 0.00 0.00 22 1006.1
20260506220912 99 16 4.0 5.0 0.00 0.00 0.00 22 1006.1
20260506220412 99 4 4.0 6.0 0.00 0.00 0.00 22 1006.2
20260506215912 99 322 5.0 6.0 0.00 0.00 0.00 22 1006.1
20260506215413 100 95 4.0 6.0 0.00 0.00 0.00 22 1006.3
20260506214912 100 347 5.0 7.0 0.00 0.00 0.00 21 1006.3
20260506214412 100 59 3.0 4.0 0.00 0.00 0.00 21 1006.3
20260506213912 100 73 5.0 7.0 0.00 0.00 0.00 21 1006.2
20260506213413 100 322 4.0 6.0 0.00 0.00 0.00 20 1005.9
20260506212913 102 356 4.0 6.0 0.00 0.00 0.00 20 1006.3
20260506212413 104 28 5.0 7.0 0.00 0.00 0.00 19 1006.3
20260506211912 104 337 2.0 3.0 0.00 0.00 0.00 13 1006.8
20260506211412 103 344 1.0 2.0 0.00 0.00 0.00 17 1006.3
20260506210912 104 61 3.0 4.0 0.00 0.00 0.00 12 1006.6
20260506210413 104 189 5.0 5.0 0.00 0.00 0.00 11 1006.7
20260506205913 105 245 3.0 4.0 0.00 0.00 0.00 11 1006.6
20260506205413 104 192 4.0 4.0 0.00 0.00 0.00 11 1006.9
20260506204912 104 172 1.0 2.0 0.00 0.00 0.00 11 1007.0
20260506204412 104 282 3.0 3.0 0.00 0.00 0.00 11 1007.0
20260506203912 104 263 2.0 3.0 0.00 0.00 0.00 12 1006.8
20260506203413 104 254 7.0 10.0 0.00 0.00 0.00 11 1007.0
20260506202913 104 25 3.0 4.0 0.00 0.00 0.00 12 1007.3
20260506202413 104 296 4.0 6.0 0.00 0.00 0.00 12 1007.2
20260506201912 104 32 2.0 3.0 0.00 0.00 0.00 12 1007.2
20260506201412 104 291 4.0 5.0 0.00 0.00 0.00 12 1007.2
20260506200912 103 270 2.0 3.0 0.00 0.00 0.00 12 1007.5
20260506200413 102 296 3.0 4.0 0.00 0.00 0.00 15 1007.5
20260506195913 102 131 6.0 7.0 0.00 0.00 0.00 12 1007.7
20260506195413 102 18 4.0 9.0 0.00 0.00 0.00 15 1007.3
20260506194912 103 291 3.0 4.0 0.00 0.00 0.00 14 1007.8
20260506194412 101 53 2.0 4.0 0.00 0.00 0.00 17 1008.1
20260506193912 100 43 5.0 7.0 0.00 0.00 0.00 22 1008.0
20260506193413 100 324 3.0 4.0 0.00 0.00 0.00 23 1008.2
20260506192913 100 210 3.0 4.0 0.00 0.00 0.00 23 1008.3
20260506192413 99 320 3.0 3.0 0.00 0.00 0.00 24 1008.4
20260506191912 100 22 3.0 5.0 0.00 0.00 0.00 24 1008.7
20260506191412 102 80 1.0 2.0 0.00 0.00 0.00 22 1008.5
20260506190912 100 269 2.0 3.0 0.00 0.00 0.00 18 1008.7
20260506190413 100 294 2.0 3.0 0.00 0.00 0.00 23 1008.7
20260506185913 100 292 2.0 4.0 0.00 0.00 0.00 25 1008.8
20260506185413 98 7 3.0 4.0 0.00 0.00 0.00 28 1009.0
20260506184912 98 345 2.0 3.0 0.00 0.00 0.00 29 1009.1
20260506184412 97 191 1.0 2.0 0.00 0.00 0.00 29 1009.1
20260506183912 95 302 2.0 3.0 0.00 0.00 0.00 30 1009.1
20260506183413 99 215 1.0 2.0 0.00 0.00 0.00 28 1009.5
20260506182913 98 269 1.0 2.0 0.00 0.00 0.00 29 1009.2
20260506182413 96 301 3.0 4.0 0.00 0.00 0.00 29 1009.4
20260506181912 96 317 4.0 6.0 0.00 0.00 0.00 34 1009.5
20260506181412 95 26 2.0 3.0 0.00 0.00 0.00 36 1009.8
20260506180912 96 335 2.0 3.0 0.00 0.00 0.00 37 1009.5
20260506180413 94 24 3.0 5.0 0.00 0.00 0.00 39 1009.8
20260506175913 95 16 3.0 5.0 0.00 0.00 0.00 38 1009.8
20260506175413 93 19 2.0 2.0 0.00 0.00 0.00 41 1009.8
20260506174912 93 348 3.0 4.0 0.00 0.00 0.00 38 1010.0
20260506174412 92 276 1.0 2.0 0.00 0.00 0.00 39 1010.0
20260506173912 92 342 3.0 5.0 0.00 0.00 0.00 44 1010.0
20260506173413 92 311 2.0 3.0 0.00 0.00 0.00 44 1010.3
20260506172913 92 288 2.0 3.0 0.00 0.00 0.00 45 1010.3
20260506172413 92 239 1.0 2.0 0.00 0.00 0.00 43 1010.1
20260506171912 92 256 3.0 4.0 0.00 0.00 0.00 43 1010.3
20260506171412 92 239 3.0 4.0 0.00 0.00 0.00 45 1010.3
20260506170912 91 203 1.0 2.0 0.00 0.00 0.00 47 1010.3
20260506170413 91 230 1.0 2.0 0.00 0.00 0.00 48 1010.3
20260506165913 92 304 1.0 2.0 0.00 0.00 0.00 48 1010.2
20260506165413 91 244 0.0 0.0 0.00 0.00 0.00 49 1010.4
20260506164912 90 344 2.0 3.0 0.00 0.00 0.00 52 1010.5
20260506164412 89 13 2.0 3.0 0.00 0.00 0.00 55 1010.2
20260506163913 88 18 2.0 3.0 0.00 0.00 0.00 54 1010.4
20260506163413 89 40 3.0 4.0 0.00 0.00 0.00 55 1010.6
20260506162913 88 132 3.0 4.0 0.00 0.00 0.00 56 1010.5
20260506162412 88 175 1.0 2.0 0.00 0.00 0.00 57 1010.7
20260506161912 87 123 2.0 3.0 0.00 0.00 0.00 59 1010.6
20260506161412 88 103 1.0 3.0 0.00 0.00 0.00 58 1010.6
20260506160913 87 87 1.0 2.0 0.00 0.00 0.00 59 1010.4
20260506160413 87 346 2.0 2.0 0.00 0.00 0.00 60 1010.7
20260506155913 88 109 2.0 3.0 0.00 0.00 0.00 59 1010.7
20260506155413 86 307 0.0 0.0 0.00 0.00 0.00 61 1010.7
20260506154912 85 65 2.0 3.0 0.00 0.00 0.00 63 1010.6
20260506154412 85 22 2.0 3.0 0.00 0.00 0.00 63 1010.5
20260506153913 84 305 3.0 3.0 0.00 0.00 0.00 65 1010.5
20260506153412 84 286 0.0 0.0 0.00 0.00 0.00 65 1010.4
20260506152912 84 204 0.0 0.0 0.00 0.00 0.00 66 1010.4
20260506152412 83 31 2.0 3.0 0.00 0.00 0.00 68 1010.6
20260506151912 82 103 2.0 3.0 0.00 0.00 0.00 70 1010.4
20260506151412 83 336 2.0 3.0 0.00 0.00 0.00 69 1010.3
20260506150913 82 336 2.0 4.0 0.00 0.00 0.00 71 1010.6
20260506150413 83 289 2.0 2.0 0.00 0.00 0.00 69 1010.6
20260506145912 82 104 2.0 3.0 0.00 0.00 0.00 71 1010.3
20260506145412 83 13 4.0 4.0 0.00 0.00 0.00 71 1010.5
20260506144912 82 51 2.0 3.0 0.00 0.00 0.00 73 1010.5
20260506144412 82 47 1.0 2.0 0.00 0.00 0.00 74 1010.6
20260506143913 81 347 2.0 3.0 0.00 0.00 0.00 75 1010.5
20260506143412 81 323 3.0 4.0 0.00 0.00 0.00 75 1010.5
20260506142912 81 25 2.0 3.0 0.00 0.00 0.00 76 1010.6
20260506142412 81 344 3.0 5.0 0.00 0.00 0.00 75 1010.6
20260506141912 80 283 1.0 2.0 0.00 0.00 0.00 77 1010.6
20260506141413 80 306 2.0 2.0 0.00 0.00 0.00 76 1010.5
20260506140913 80 50 2.0 3.0 0.00 0.00 0.00 77 1010.6
20260506140903 80 9 2.0 4.0 0.00 0.00 0.00 78 1010.5
20260506140412 80 9 2.0 4.0 0.00 0.00 0.00 78 1010.5
20260506135912 79 44 3.0 4.0 0.00 0.00 0.00 79 1010.4
20260506135412 79 15 3.0 4.0 0.00 0.00 0.00 80 1010.3
20260506134913 79 31 4.0 5.0 0.00 0.00 0.00 79 1010.3
20260506134413 79 18 4.0 5.0 0.00 0.00 0.00 79 1010.2
20260506133913 79 24 3.0 4.0 0.00 0.00 0.00 78 1010.2
20260506133412 78 346 3.0 4.0 0.00 0.00 0.00 79 1010.3
20260506132912 78 356 3.0 4.0 0.00 0.00 0.00 79 1010.2
20260506132413 78 39 4.0 7.0 0.00 0.00 0.00 79 1010.0
20260506131913 79 31 3.0 4.0 0.00 0.00 0.00 77 1010.0
20260506131413 80 42 3.0 4.0 0.00 0.00 0.00 69 1010.0
20260506130912 80 25 2.0 2.0 0.00 0.00 0.00 63 1009.9
20260506130412 80 317 1.0 2.0 0.00 0.00 0.00 61 1009.8
20260506125912 79 325 0.0 0.0 0.00 0.00 0.00 63 1009.8
20260506125413 78 95 1.0 2.0 0.00 0.00 0.00 64 1009.7
20260506124912 78 185 0.0 0.0 0.00 0.00 0.00 64 1009.7
20260506124412 77 109 1.0 2.0 0.00 0.00 0.00 64 1009.5
20260506123912 77 162 2.0 3.0 0.00 0.00 0.00 65 1009.4
20260506123413 77 87 1.0 2.0 0.00 0.00 0.00 65 1009.4
20260506122913 77 165 1.0 2.0 0.00 0.00 0.00 65 1009.4
20260506122413 77 184 3.0 3.0 0.00 0.00 0.00 66 1009.6
20260506121912 76 201 1.0 2.0 0.00 0.00 0.00 68 1009.3
20260506121412 76 94 1.0 2.0 0.00 0.00 0.00 69 1009.2
20260506120912 76 94 0.0 0.0 0.00 0.00 0.00 71 1009.2
20260506120413 76 94 0.0 0.0 0.00 0.00 0.00 75 1009.2
20260506115913 76 94 2.0 2.0 0.00 0.00 0.00 74 1009.1
20260506115413 76 94 0.0 0.0 0.00 0.00 0.00 75 1008.8
20260506114912 76 94 0.0 0.0 0.00 0.00 0.00 74 1008.9
20260506114412 76 94 1.0 2.0 0.00 0.00 0.00 75 1009.0
20260506113912 76 94 2.0 2.0 0.00 0.00 0.00 76 1008.8
20260506113413 76 94 1.0 2.0 0.00 0.00 0.00 77 1008.8
20260506112913 77 94 2.0 2.0 0.00 0.00 0.00 78 1008.5
20260506112413 77 94 2.0 2.0 0.00 0.00 0.00 79 1008.6
20260506111912 77 94 1.0 2.0 0.00 0.00 0.00 78 1008.5
20260506111412 77 94 1.0 2.0 0.00 0.00 0.00 78 1008.3
20260506110912 77 94 1.0 2.0 0.00 0.00 0.00 79 1008.4
20260506110413 77 94 1.0 2.0 0.00 0.00 0.00 79 1008.4
20260506105913 77 94 2.0 2.0 0.00 0.00 0.00 79 1008.5
20260506105413 77 139 1.0 2.0 0.00 0.00 0.00 79 1008.5
20260506104912 77 139 1.0 2.0 0.00 0.00 0.00 79 1008.4
20260506104412 77 30 2.0 3.0 0.00 0.00 0.00 79 1008.3